EW9240 Weather Reports


Display with metric or nautical units.
time (UTC)temp
F
wind
direction
speed
MPH
gust
MPH
rain 1hr
in
rain 24hr
in
rain mn
in
humidity
%
barometer
mb
20190421171543 50 300 0.0 2.0 0.00 0.00 0.00 77 1025.9
20190421170038 50 264 0.0 3.0 0.00 0.00 0.00 76 1026.0
20190421164511 49 256 0.0 4.0 0.00 0.00 0.00 78 1025.8
20190421163005 49 279 0.0 3.0 0.00 0.00 0.00 77 1025.8
20190421161505 49 261 1.0 3.0 0.00 0.00 0.00 77 1025.6
20190421160221 49 309 0.0 2.0 0.00 0.00 0.00 77 1025.2
20190421154804 49 274 0.0 1.0 0.00 0.00 0.00 78 1025.0
20190421153144 48 328 0.0 1.0 0.00 0.00 0.00 78 1024.8
20190421151633 48 46 0.0 1.0 0.00 0.00 0.00 80 1024.6
20190421150207 48 301 0.0 2.0 0.00 0.00 0.00 80 1024.8
20190421144642 48 17 0.0 3.0 0.00 0.00 0.00 81 1024.8
20190421143201 48 25 0.0 1.0 0.00 0.00 0.00 82 1024.9
20190421141640 47 293 0.0 2.0 0.00 0.00 0.00 82 1024.8
20190421140157 47 309 0.0 2.0 0.00 0.00 0.00 83 1024.7
20190421134639 47 266 0.0 1.0 0.00 0.00 0.00 84 1024.5
20190421133205 47 354 0.0 1.0 0.00 0.00 0.00 84 1024.2
20190421131623 47 357 0.0 1.0 0.00 0.00 0.00 84 1024.0
20190421130210 47 295 0.0 1.0 0.00 0.00 0.00 85 1023.9
20190421124635 47 256 0.0 0.0 0.00 0.00 0.00 85 1023.8
20190421123131 47 256 0.0 0.0 0.00 0.00 0.00 85 1023.7
20190421121624 47 256 0.0 0.0 0.00 0.00 0.00 85 1023.6
20190421120105 48 256 0.0 0.0 0.00 0.00 0.00 84 1023.5
20190421114613 48 256 0.0 0.0 0.00 0.00 0.00 84 1023.3
20190421113134 48 256 0.0 0.0 0.00 0.00 0.00 83 1023.3
20190421111633 48 256 0.0 0.0 0.00 0.00 0.00 83 1023.2
20190421110137 48 256 0.0 0.0 0.00 0.00 0.00 83 1023.2
20190421104600 48 256 0.0 0.0 0.00 0.00 0.00 82 1023.0
20190421103108 48 271 0.0 2.0 0.00 0.00 0.00 81 1022.8
20190421101607 49 263 0.0 2.0 0.00 0.00 0.00 81 1022.7
20190421100049 49 285 0.0 4.0 0.00 0.00 0.00 80 1022.5
20190421094522 49 264 0.0 2.0 0.00 0.00 0.00 80 1022.3
20190421093115 49 274 0.0 1.0 0.00 0.00 0.00 80 1021.9
20190421091550 49 269 0.0 2.0 0.00 0.00 0.00 81 1021.7
20190421090024 49 271 0.0 1.0 0.00 0.00 0.00 80 1021.7
20190421084515 49 307 0.0 1.0 0.00 0.00 0.00 80 1021.6
20190421083056 49 296 0.0 3.0 0.00 0.00 0.00 79 1021.7
20190421081515 50 271 1.0 4.0 0.00 0.00 0.00 79 1021.7
20190421080011 50 266 0.0 2.0 0.00 0.00 0.00 81 1021.6
20190421074507 50 264 0.0 2.0 0.00 0.00 0.00 81 1021.4
20190421071718 50 265 0.0 2.0 0.00 0.00 0.00 81 1020.9
20190421070147 50 294 0.0 1.0 0.00 0.00 0.00 82 1020.8
20190421064703 50 296 0.0 0.0 0.00 0.01 0.00 82 1020.6
20190421063256 50 296 0.0 0.0 0.00 0.01 0.00 81 1020.3
20190421061616 51 255 0.0 2.0 0.00 0.01 0.00 80 1020.1
20190421060118 51 268 0.0 4.0 0.00 0.01 0.00 78 1019.8
20190421054637 52 1 0.0 1.0 0.00 0.04 0.00 78 1019.6
20190421053147 52 18 0.0 5.0 0.00 0.04 0.00 77 1019.4
20190421051717 53 262 1.0 5.0 0.00 0.04 0.00 76 1019.1
20190421050128 54 256 0.0 4.0 0.00 0.04 0.00 75 1018.9
20190421044705 54 274 1.0 3.0 0.00 0.05 0.00 74 1018.6
20190421043156 55 258 0.0 4.0 0.00 0.05 0.00 73 1018.4
20190421041611 56 283 1.0 7.0 0.00 0.05 0.00 71 1018.1
20190421040110 56 300 0.0 7.0 0.00 0.05 0.00 69 1017.6
20190421034608 57 262 1.0 3.0 0.00 0.07 0.00 66 1017.2
20190421033058 58 269 0.0 3.0 0.00 0.07 0.00 63 1016.9
20190421031540 58 261 0.0 3.0 0.00 0.07 0.00 62 1016.7
20190421030038 59 266 0.0 5.0 0.00 0.07 0.00 59 1016.5
20190421024532 60 262 1.0 5.0 0.00 0.08 0.00 56 1016.3
20190421023044 61 259 2.0 6.0 0.00 0.08 0.00 55 1016.1
20190421021601 62 265 1.0 7.0 0.00 0.08 0.00 52 1016.0
20190421020040 62 258 2.0 5.0 0.00 0.08 0.00 50 1015.8
20190421014514 62 304 1.0 6.0 0.00 0.09 0.00 50 1015.7
20190421013031 62 265 4.0 9.0 0.00 0.09 0.00 49 1015.6
20190421011551 62 264 3.0 7.0 0.00 0.09 0.00 48 1015.5
20190421010016 62 276 1.0 7.0 0.00 0.09 0.00 49 1015.5
20190421004520 62 256 2.0 8.0 0.00 0.14 0.00 50 1015.3
20190421003014 63 56 2.0 8.0 0.00 0.14 0.00 49 1015.2
20190421001506 62 324 2.0 8.0 0.00 0.14 0.00 51 1015.2
20190421000005 62 107 0.0 5.0 0.00 0.14 0.00 61 1015.1
20190420234707 61 134 0.0 4.0 0.00 0.14 0.00 62 1015.0
20190420233123 61 216 0.0 5.0 0.00 0.14 0.00 66 1015.0
20190420231743 61 182 2.0 6.0 0.00 0.14 0.00 63 1015.0
20190420230125 61 124 0.0 5.0 0.00 0.14 0.00 65 1015.1
20190420224649 61 214 0.0 4.0 0.00 0.14 0.00 62 1015.1
20190420223233 61 205 0.0 2.0 0.00 0.14 0.00 63 1015.1
20190420221617 60 137 0.0 3.0 0.00 0.14 0.00 66 1015.2
20190420220117 60 283 0.0 3.0 0.00 0.14 0.00 64 1015.3
20190420214647 59 176 0.0 6.0 0.00 0.14 0.00 66 1015.3
20190420213136 59 143 1.0 3.0 0.00 0.14 0.00 69 1015.4
20190420211636 58 193 0.0 3.0 0.00 0.14 0.00 69 1015.5
20190420210132 58 270 0.0 4.0 0.00 0.14 0.00 68 1015.5
20190420204611 57 270 0.0 4.0 0.00 0.14 0.00 70 1015.4
20190420203156 57 306 0.0 3.0 0.00 0.14 0.00 70 1015.4
20190420201636 57 213 0.0 4.0 0.00 0.14 0.00 71 1015.4
20190420200141 56 258 1.0 4.0 0.00 0.14 0.00 74 1015.5
20190420194614 55 257 0.0 2.0 0.00 0.14 0.00 76 1015.5
20190420193048 54 285 0.0 3.0 0.00 0.14 0.00 77 1015.4
20190420191628 54 269 0.0 3.0 0.00 0.14 0.00 78 1015.4
20190420190057 53 104 1.0 4.0 0.00 0.14 0.00 81 1015.3
20190420184554 52 281 0.0 4.0 0.00 0.14 0.00 81 1015.3
20190420183041 52 159 0.0 3.0 0.00 0.14 0.00 83 1015.3
20190420181557 52 289 0.0 3.0 0.00 0.14 0.00 82 1015.2